Back to catalog

STARLINK-35040

AliveCommunicationsVLEO
NORAD 65480·PAYLOAD·🇺🇸 United States

Launched Sep 3, 2025 from Cape Canaveral Space Force Station

Loading…

Next Passes (next 24 hours)

TLE

FreshSource: CelesTrak SupGP

Epoch: Sep 14, 2026, 14:21 UTC

1 65480C 25195Y   26257.59840278  .00006725  00000+0  19881-3 0  2576
2 65480  53.1576  97.0341 0000994  75.8668  82.3495 15.34366329    12

Track STARLINK-35040 in real time with AllMySat

Download on the App Store